sat.trackr.live / text

‹ back to catalog

STARLINK-37483

NORAD 68856 · 2026-094T

PAYLOAD ACTIVE UNKNOWN

§ Identity

Operator
Country
US
Launch date
2026-04-26
Launch site
AFWTR
Launch vehicle
Mass (kg)
RCS (m²)

Purposes: comms

External: N2YO · Heavens-Above · Gunter

§ Orbital elements

Epoch: 2026-05-25T04:00:03.998880Z

Period
92.95 min
Inclination
97.2845°
Eccentricity
0.0001425
Mean motion
15.49174746 rev/d
Perigee alt
418.2 km
Apogee alt
420.1 km
Semi-major
6,797.3 km
B*
-1.5696e-5
RAAN
159.9531°
Arg perigee
66.4690°
Mean anomaly
215.3879°
Rev number
567

§ Raw data

STARLINK-374831 68856U 26094T   26145.16671295 -.00000944  00000+0 -15696-4 0  99982 68856  97.2845 159.9531 0001425  66.4690 215.3879 15.49174746  5677

JSON: /api/v1/satellites/68856 · /tle

For live sub-satellite position, see the globe view (requires WebGL).

§ Visibility from observer

Set your observer location to see the next 7 days of passes ≥ 10°. The values pass through the URL so the page stays shareable.

No JS? Fill the form by hand. The geolocation button needs JavaScript.